SL-19 DEB, 24679

Orbit data source: Space-Track

SL-19 DEB, 24679 is space debris in LEO originally from a launch on Mon, 26 Dec 1994 UTC launched from the Tyuratam Missile And Space Complex (TTMTR). Debris objects in space refer to the collection of defunct objects orbiting the Earth. Examples of debris include non-operational satellites, rocket bodies, and fragments generated from explosions, collisions, or faulty payload assembly.

Loading next visibility...
Identifier
24679, 1994-085Y
Orbit
LEO
Country
Flag of CISCIS
Related business
Manufacturer
Unknown
Mission
Spacecraft
Bus & Motor
Unknown
Mass
Unknown
Launch date (UTC)
1994-12-26 (31 years ago)
Launch vehicle
Unknown
Launch site
Tyuratam Missile And Space Complex (TTMTR)
Object type
Payload
Rocket body
Debris
Shape & HBR
Unknown shape, 0.1 m
Radar Cross Section
Small (<0.1 m²)

Expand to show TLE details & history
Last TLE update: 2 days ago

TLE from 2 days ago
0 SL-19 DEB
1 24679U 94085Y   25308.81772513 -.00000013  00000-0  78137-3 0  9990
2 24679  64.9844 243.3947 0180120 151.2619 239.0172 11.32309827440798
Epoch: 2025-11-04T19:37Z
TLE epoch observation values (Epoch: 2025-11-04T19:37:31.451Z)
Latitude
25.68809°
Longitude
-82.37502°
Altitude
2,080.54 km
Speed
6.835 km/s
True Right ascension
17h 05m 13s
True Declination
25° 34' 30"
Sunlit
Object was in daylight at epoch
Visualization orbit readout
Latitude
Unknown
Longitude
Unknown
Altitude
Unknown
Speed
Unknown
Apparent Right ascension
Unknown
Apparent Declination
Unknown
Sunlit
N/A
Visualization observer readout
Local Sidereal Time
05:43:17
Azimuth
Unknown
Elevation
Unknown
Doppler factor
Unknown
Orbital elements
Apogee altitude
2,148.575 km
Perigee altitude
1,846.844 km
Semi-major axis
8,375.847 km
Eccentricity
0.01801
Inclination
64.9844°
RAAN
243.3947°
Arg. of periapsis
151.2619°
True anomaly
237.26822°
Mean anomaly
239.0172°
Eccentric anomaly
238.14066°
Mean motion
2.83139 °/min
Orbital period
127.15 mins
BSTAR
0.00078137
Loading maneuver chart data...
Computing Atmospheric mass density...
Loading historical data...
Loading historical data...
Loading historical data...
Loading historical data...
Loading historical data...
Loading historical data...
Loading historical data...

Documentation

Showing up to 5 results
|